Regional Weather Roundup
Issued by NWS

Home | Current Version | Previous Version | Text Only | Print | Product List | Glossary Off
Versions: 1 2 3 4 5 6 7 8 9 10 11 12 13 14 15 16 17 18 19 20 21 22 23 24 25 26 27 28 29 30 31 32 33 34 35 36 37 38 39 40 41 42 43 44 45 46 47 48 49 50

430
ASUS43 KLMK 060202
RWRKY
KENTUCKY REGIONAL WEATHER ROUNDUP
NATIONAL WEATHER SERVICE LOUISVILLE KY
900 PM EST FRI FEB 05 2016

NOTE "FAIR" INDICATES FEW OR NO CLOUDS BELOW 12,000 FEET
WITH NO SIGNIFICANT WEATHER AND/OR OBSTRUCTIONS TO VISIBILITY.

KYZ001>023-026-027-061>063-070>075-060300-
WESTERN AND SOUTH CENTRAL KENTUCKY

CITY           SKY/WX    TMP DP  RH WIND       PRES   REMARKS
PADUCAH        CLEAR     34  24  67 CALM      30.35S
HENDERSON      CLEAR     30  21  69 CALM      30.37R
OWENSBORO      CLOUDY    37  27  68 CALM      30.36F
HOPKINSVILLE   CLOUDY    41  21  45 CALM      30.36F
BOWLING GREEN  CLOUDY    39  21  48 S6        30.38F WCI  35
GLASGOW        NOT AVBL
$$

KYZ024-025-028>034-038-045-046-053-060300-
NORTH CENTRAL KENTUCKY

CITY           SKY/WX    TMP DP  RH WIND       PRES   REMARKS
LOUISVILLE/SDF PTCLDY    40  18  41 S6        30.36S
LOUISVILLE/LOU CLOUDY    39  20  46 S3        30.36F
FORT KNOX      CLOUDY    33  20  60 S2        30.34F
$$

KYZ035>037-039>044-047>052-055>060-089>105-060300-
NORTHEAST KENTUCKY

CITY           SKY/WX    TMP DP  RH WIND       PRES   REMARKS
LEXINGTON      CLOUDY    34  18  52 S7        30.37S WCI  28
COVINGTON      CLOUDY    33  18  53 S7        30.33F WCI  27
FRANKFORT      CLEAR     34  17  50 S7        30.35F WCI  28
$$

KYZ054-064>069-076>088-106>120-060300-
SOUTHEAST KENTUCKY

CITY           SKY/WX    TMP DP  RH WIND       PRES   REMARKS
JACKSON        CLOUDY    35  12  38 SW3       30.37S
LONDON         CLOUDY    32  16  51 CALM      30.37F
SOMERSET       NOT AVBL
MIDDLESBORO    NOT AVBL
MONTICELLO     CLOUDY    26  23  88 CALM      30.41F
$$





USA.gov is the U.S. government's official web portal to all federal, state and local government web resources and services.